sat.trackr.live / text

‹ back to catalog

STARLINK-36759

NORAD 68771 · 2026-086F

PAYLOAD ACTIVE UNKNOWN

§ Identity

Operator
Country
US
Launch date
2026-04-19
Launch site
AFWTR
Launch vehicle
Mass (kg)
RCS (m²)

Purposes: comms

External: N2YO · Heavens-Above · Gunter

§ Orbital elements

Epoch: 2026-05-25T04:00:03.998880Z

Period
92.06 min
Inclination
97.2847°
Eccentricity
0.0001518
Mean motion
15.64223049 rev/d
Perigee alt
374.4 km
Apogee alt
376.5 km
Semi-major
6,753.6 km
B*
-2.2787e-2
RAAN
182.0084°
Arg perigee
90.8200°
Mean anomaly
216.5987°
Rev number
595

§ Raw data

STARLINK-367591 68771U 26086F   26145.16671295 -.01915471  00000+0 -22787-1 0  99922 68771  97.2847 182.0084 0001518  90.8200 216.5987 15.64223049  5958

JSON: /api/v1/satellites/68771 · /tle

For live sub-satellite position, see the globe view (requires WebGL).

§ Visibility from observer

Set your observer location to see the next 7 days of passes ≥ 10°. The values pass through the URL so the page stays shareable.

No JS? Fill the form by hand. The geolocation button needs JavaScript.